Regional Weather Roundup
Issued by NWS

Home | Current Version | Previous Version | Text Only | Print | Product List | Glossary On
Versions: 1 2 3 4 5 6 7 8 9 10 11 12 13 14 15 16 17 18 19 20 21 22 23 24 25 26 27 28 29 30 31 32 33 34 35 36 37 38 39 40 41 42 43 44 45 46 47 48 49 50
000
ASUS43 KLOT 030310
RWRIL

ILLINOIS REGIONAL WEATHER ROUNDUP
NATIONAL WEATHER SERVICE CHICAGO/ROMEOVILLE IL
1000 PM CDT TUE SEP 02 2014

NOTE: "FAIR" INDICATES FEW OR NO CLOUDS BELOW 12,000 FEET WITH NO
SIGNIFICANT WEATHER AND/OR OBSTRUCTIONS TO VISIBILITY.

* THESE STATIONS ARE NOT UNDER NWS QUALITY CONTROL. THEY ALSO MAY NOT
  REPORT WEATHER SUCH AS PRECIPITATION OR FOG.

ILZ001-002-007-009-015-016-024-030400-
NORTHWEST ILLINOIS

CITY           SKY/WX    TMP DP  RH WIND       PRES   REMARKS
MOLINE         CLEAR     66  60  81 CALM      29.96R
STERLING*      CLEAR     63  59  88 CALM      29.96R
SAVANNA*       CLEAR     64  62  92 CALM      29.95R
$$

ILZ003-004-008-010-011-017-018-030400-
NORTH CENTRAL ILLINOIS

CITY           SKY/WX    TMP DP  RH WIND       PRES   REMARKS
ROCKFORD       CLEAR     65  61  87 CALM      29.96R
FREEPORT*      CLEAR     62  60  91 SW3       29.97S
ROCHELLE*      CLEAR     64  61  90 CALM      29.96R
DE KALB*       CLEAR     65  60  83 CALM      29.96S
PERU*          CLEAR     67  62  84 W5        29.97R
$$

ILZ005-006-012>014-019>023-030400-
NORTHEAST ILLINOIS

CITY           SKY/WX    TMP DP  RH WIND       PRES   REMARKS
CHICAGO-OHARE  PTCLDY    72  58  61 W6        29.94R
CHICAGO-MIDWAY PTCLDY    75  59  57 SW6       29.94R
AURORA         CLEAR     65  62  90 W3        29.95R
LANSING*         N/A    N/A N/A N/A MISG        N/A
JOLIET*        CLEAR     64  62  91 CALM      29.96R
WAUKEGAN       CLEAR     64  61  90 CALM      29.93R
DUPAGE AIRPORT PTCLDY    69  61  75 W3        29.94R
KANKAKEE*      CLEAR     64  63  97 S5        29.97R
WHEELING       CLEAR     72  61  68 CALM      29.95R
MORRIS*        CLEAR     66  65  96 SW3       29.95R
ROMEOVILLE*    PTCLDY    66  62  84 SW5       29.96R
NORTHERLY ISL    N/A     76  56  49 SW3         N/A
$$

LMZ740>746-030400-
SOUTHERN LAKE MICHIGAN

STATION/POSITION SKY/WX   TEMP    WIND        PRES    VSBY  WAVE
                          AIR SEA DIR/SP/G                  HT/PER
                          (F)     (DEG/KT/KT) (MB)    (MI)  (FT/S)
SOUTHERN BUOY              72 72  180/  6/  6 1013.5R         0
WAUKEGAN HARBOR            72     290/  3/  5   N/A
HARRISON CRIB              74     170/  2/  3   N/A
BURNHAM HARBOR             76     260/  3/  5   N/A
CALUMET HARBOR             74     180/  2/  2 1012.7R
MICHIGAN CITY              71     130/  7/  8   N/A
MICHIGAN CITY 6N           72 73  170/  6/  8   N/A           0
ST. JOSEPH                 72 74  150/  6/  6   N/A           0
$$

ILZ025>027-034>036-040-047-049-050-058-095>099-030400-
WEST-CENTRAL ILLINOIS

CITY           SKY/WX    TMP DP  RH WIND       PRES   REMARKS
QUINCY         CLEAR     70  65  84 S3        29.99R
GALESBURG*     CLEAR     64  60  86 CALM      29.98R
MACOMB*        CLEAR     63  61  95 CALM      30.00R
JACKSONVILLE*  CLEAR     70  67  92 S3        30.00R
PITTSFIELD*    PTCLDY    68  65  90 CALM      30.01R
$$

ILZ028>032-037-038-041>044-048-051>054-059>061-030400-
CENTRAL ILLINOIS

CITY           SKY/WX    TMP DP  RH WIND       PRES   REMARKS
PONTIAC        CLEAR     66  66 100 CALM      29.97R
DECATUR        PTCLDY    71  67  87 SW6       29.99R
PEORIA         PTCLDY    71  65  81 CALM      29.97R
LACON*         CLEAR     66  63  92 CALM      29.96R
LINCOLN*       PTCLDY    72  66  83 CALM      29.96R
SPRINGFIELD    PTCLDY    69  66  90 CALM      29.99R
TAYLORVILLE    CLEAR     68  66  94 S5        30.00R
$$

ILZ033-039-045-046-055>057-062-063-030400-
EAST-CENTRAL ILLINOIS

CITY           SKY/WX    TMP DP  RH WIND       PRES   REMARKS
CHAMPAIGN      CLEAR     69  66  90 SW6       29.99R
DANVILLE*      MOCLDY    66  66  99 CALM      29.96R FOG
RANTOUL*       CLEAR     69  65  87 CALM      29.99R
MATTOON        CLEAR     70  67  90 S6        29.99R
PARIS*         CLEAR     67  66  98 SW3       30.00R
$$

ILZ079-100>102-030400-
SOUTHWEST ILLINOIS

CITY           SKY/WX    TMP DP  RH WIND       PRES   REMARKS
ALTON          CLEAR     70  68  94 CALM      29.99S
BELLEVILLE     CLEAR     68  68 100 CALM      30.00R FOG
CAHOKIA*       CLEAR     70  67  90 S3        30.00R
SPARTA*        CLEAR     71  69  93 CALM      30.02R
$$

ILZ064>066-069>071-074>076-080>082-084>086-088>090-092>094-030400-
SOUTH-CENTRAL ILLINOIS

CITY           SKY/WX    TMP DP  RH WIND       PRES   REMARKS
CARBONDALE     CLEAR     72  70  93 CALM      30.01R
CAIRO*         CLEAR     73  68  86 CALM      30.00R HAZE
EFFINGHAM*     CLEAR     68  65  90 CALM      30.01R
MARION         CLEAR     72  70  94 CALM      30.01S
MT. VERNON     CLEAR     68  63  83 CALM      30.02R
CENTRALIA*       N/A     67  65  92 CALM      30.01S FOG
SALEM*         FOG       69  69  98 CALM      30.01S VSB 1/2
METROPOLIS*    PTCLDY    72  72 100 CALM      30.00R
$$

ILZ067-068-072-073-078-083-087-091-030400-
SOUTHEAST ILLINOIS

CITY           SKY/WX    TMP DP  RH WIND       PRES   REMARKS
LAWRENCEVILLE  CLEAR     67  67 100 CALM      30.01R
FLORA*         CLEAR     67  66  97 CALM      30.01R
FAIRFIELD*     CLEAR     70  70 100 CALM      30.01R FOG
HARRISBURG*    CLEAR     70  70 100 CALM      30.02R FOG
ROBINSON*      CLEAR     67  66  97 CALM      30.01R FOG
CARMI*         CLEAR     70  69  99 CALM      30.00S
$$

ABBREVIATIONS USED IN REMARKS
   TC - TEMPERATURE IN CELSIUS
  WCI - WIND CHILL INDEX
   HX - HEAT INDEX
  VSB - VISIBILITY
$$



USA.gov is the U.S. government's official web portal to all federal, state and local government web resources and services.